Location: Broletto
(44.6000°N, 10.5833°E)
Time: 06:32:59
(UTC+00:00)

Okean-O - Pass Details

Date: 18 April 2021
Orbit: 639 x 640 km, 98.2° (Epoch: 06 May)

Event Time Altitude Azimuth Distance (km) Brightness Sun altitude
Rises 18:32:17 0° 180° (S) 2,930 5.8 -5.2°
Reaches altitude 10° 18:34:32 10° 186° (S) 2,025 5.1 -5.6°
Maximum altitude 18:38:48 47° 261° (W) 855 3.8 -6.3°
Drops below altitude 10° 18:43:05 10° 335° (NNW) 2,041 6.0 -7.0°
Sets 18:45:22 0° 341° (NNW) 2,954 6.7 -7.3°
